Home   Weather   Bourges   Past weeks

Flag for France Past Weather in Bourges, Centre-Val de Loire, France — Yesterday and Last 2 Weeks

Now
77 °F

Mild.


Feels Like: 78 °F
Forecast: 56 / 86 °F
Wind: 8 mph from North

Location: Bourges

Current Time: Aug 18, 2018 at 2:49:07 pm

Latest Report: Aug 18, 2018 at 2:00 pm


Visibility: 13 mi

Pressure: 30.22 "Hg

Humidity: 33%

Dew Point: 45 °F

Location of BourgesLocation

Past Weather in Bourges — Graph

°F

Bourges Temperature Yesterday

Maximum temperature yesterday: 73 °F (at 12:00 am)
Minimum temperature yesterday: 64 °F (at 7:00 am)
Average temperature yesterday: 68 °F

High & Low Weather Summary for the Past Weeks

 TemperatureHumidityPressure
High99 °F (Aug 7, 5:00 pm)94% (Aug 10, 5:00 am)30.31 "Hg (Aug 10, 5:00 am)
Low53 °F (Aug 11, 6:00 am)21% (Aug 7, 3:00 pm)29.73 "Hg (Aug 7, 5:00 pm)
Average73 °F55%30.04 "Hg
* Reported Aug 3 1:00 pm — Aug 18 1:00 pm, Bourges. Weather by CustomWeather, © 2018

Note: Actual official high and low records may vary slightly from our data, if they occured in-between our weather recording intervals... More about our weather records

Advertising

Bourges Weather History for the Previous 24 Hours

Scroll right to see more
 ConditionsComfort  
Time TempWeatherWind HumidityBarometerVisibility
1:00 pm
Sat, Aug 18
76 °FMild.5 mph36%30.23 "Hg12 mi
12:00 pm74 °FMild.1 mph40%30.23 "Hg12 mi
11:00 am71 °FMild.6 mph45%30.24 "Hg12 mi
10:00 am68 °FMild.8 mph50%30.24 "Hg12 mi
9:00 am64 °FMild.7 mph54%30.24 "Hg12 mi
8:00 am58 °FCool.1 mph73%30.24 "Hg12 mi
7:00 am56 °FCool.2 mph76%30.23 "Hg12 mi
6:00 am58 °FCool.3 mph73%30.22 "Hg12 mi
5:00 am58 °FCool.3 mph70%30.21 "Hg12 mi
4:00 am60 °FCool.3 mph64%30.21 "Hg12 mi
3:00 am62 °FCool.7 mph60%30.21 "Hg12 mi
2:00 am62 °FCool.3 mph66%30.21 "Hg12 mi
1:00 am65 °FMild.3 mph62%30.20 "Hg12 mi
12:00 am66 °FMild.1 mph66%30.19 "Hg12 mi
11:00 pm
Fri, Aug 17
66 °FMild.3 mph64%30.18 "Hg12 mi
10:00 pm68 °FMild.2 mph60%30.17 "Hg12 mi
9:00 pm69 °FMild.No wind56%30.15 "Hg12 mi
8:00 pm71 °FMild.No wind52%30.14 "Hg12 mi
7:00 pm71 °FMild.3 mph53%30.14 "Hg12 mi
6:00 pm70 °FMild.5 mph58%30.14 "Hg12 mi
5:00 pm69 °FMild.7 mph58%30.14 "Hg12 mi
4:00 pm68 °FMild.8 mph64%30.15 "Hg12 mi
3:00 pm68 °FMild.6 mph65%30.16 "Hg12 mi
2:00 pm69 °FMild.2 mph65%30.15 "Hg12 mi
Weather by CustomWeather, © 2018

See weather overview